Location: Forest Hills
(36.0651°N, 86.8403°W)
Time: 00:17:00
(UTC+00:00)

ARIANE 6 FM1 Upper Stage - Pass Details

Date: 25 January 2026
Orbit: 522 x 609 km, 62.0° (Epoch: 10 February)

Event Time Altitude Azimuth Distance (km) Brightness Sun altitude
Rises 23:53:50 0° 234° (SW) 2,722 7.7 -9.8°
Reaches altitude 10° 23:56:14 10° 244° (WSW) 1,816 6.8 -10.2°
Maximum altitude 23:59:56 33° 309° (NW) 929 4.1 -10.9°
Drops below altitude 10° 00:03:35 10° 14° (NNE) 1,786 4.9 -11.7°
Enters shadow 00:04:53 - 21° (NNE) 2,272 5.4 -11.9°
